Home > Weather > Spa > Past weeks

Flag for Belgium Past Weather in Spa, Belgium — Yesterday and Last 2 Weeks

Now
62 °F

Sunny.


Feels Like: 62 °F
Forecast: 51 / 65 °F
Wind: 5 mph from West

Location: Spa / La Sauveniere

Current Time: Jul 30, 2016 at 11:25:05 AM

Latest Report: Jul 30, 2016 at 11:00 AM


Visibility: 28 mi

Pressure: 29.94 "Hg

Humidity: 68%

Dew Point: 52 °F

Location of SpaLocation

Past Weather in Spa — Graph

°F

Spa Temperature Yesterday

Maximum temperature yesterday: 67 °F (at 7:00 PM)
Minimum temperature yesterday: 56 °F (at 3:00 AM)
Average temperature yesterday: 61 °F

High & Low Weather Summary for the Past Weeks

 TemperatureHumidityPressure
High88 °F (Jul 20, 4:00 PM)98% (Jul 24, 4:00 AM)30.34 "Hg (Jul 24, 4:00 AM)
Low53 °F (Jul 27, 7:00 AM)34% (Jul 20, 2:00 PM)29.87 "Hg (Jul 20, 4:00 PM)
Average65 °F77%30.08 "Hg
* Reported Jul 15 10:00 AM — Jul 30 10:00 AM, Spa, Weather by CustomWeather, © 2016

Note: Actual official high and low records may vary slightly from our data, if they occured in-between our weather recording intervals... More about our weather records

Advertising

Spa Weather History for the Previous 24 Hours

Scroll right to see more
 ConditionsComfort  
Time TempWeatherWind HumidityBarometerVisibility
10:00 AM
Sat, Jul 30
61 °FPassing clouds.5 mph72%29.95 "Hg25 mi
9:00 AM59 °FSunny.5 mph75%29.95 "Hg25 mi
8:00 AM56 °FSunny.5 mph86%29.95 "Hg28 mi
7:00 AM57 °FScattered clouds.3 mph86%29.95 "Hg28 mi
6:00 AM58 °FClear.3 mph81%29.94 "Hg28 mi
5:00 AM58 °FPassing clouds.2 mph83%29.93 "Hg25 mi
4:00 AM58 °FPassing clouds.2 mph83%29.94 "Hg28 mi
3:00 AM59 °FPassing clouds.1 mph82%29.94 "Hg28 mi
1:00 AM61 °FPassing clouds.2 mph83%29.94 "Hg28 mi
12:00 AM62 °FPassing clouds.2 mph80%29.93 "Hg28 mi
11:00 PM
Fri, Jul 29
63 °FPassing clouds.3 mph76%29.93 "Hg28 mi
10:00 PM64 °FPassing clouds.3 mph76%29.92 "Hg28 mi
9:00 PM64 °FPassing clouds.3 mph78%29.91 "Hg28 mi
8:00 PM67 °FSunny.3 mph72%29.90 "Hg25 mi
7:00 PM67 °FSunny.6 mph66%29.90 "Hg25 mi
6:00 PM67 °FScattered clouds.7 mph68%29.90 "Hg22 mi
5:00 PM67 °FPassing clouds.6 mph71%29.90 "Hg25 mi
4:00 PM67 °FPassing clouds.7 mph72%29.90 "Hg22 mi
3:00 PM65 °FPassing clouds.7 mph80%29.92 "Hg22 mi
2:00 PM60 °FPassing clouds.5 mph89%29.94 "Hg9 mi
1:00 PM61 °FScattered clouds.5 mph90%29.93 "Hg14 mi
12:00 PM61 °FLight rain. Partly sunny.2 mph92%29.93 "Hg5 mi
11:00 AM61 °FScattered clouds.3 mph90%29.93 "Hg14 mi
Weather by CustomWeather, © 2016

See weather overviewHow to use our weather pages